This demonstration page uses our WeatherBlox Daily Observations layout. Learn more.

40.92945, -100.16068

Hourly Observations for December 7, 2015

Temp ( °F °C ) Dew Point ( °F °C ) Humidity (%) Winds ( mph kmh ) Pressure ( in mb ) Visibility ( mi km ) Precip ( " mm )
12:15 am 00:15 Clear 40 4.2 27 -3 60 60 SSW 8 13 30.21 1023 10 16.0934 N/A
12:35 am 00:35 Clear 39 3.8 27 -3 62 62 SSW 9 15 30.21 1023 10 16.0934 N/A
12:55 am 00:55 Clear 38 3.5 26 -3.2 62 62 SSW 8 13 30.21 1023 10 16.0934 N/A
1:15 am 01:15 Clear 37 2.9 26 -3.5 63 63 SW 8 13 30.21 1023 10 16.0934 N/A
1:35 am 01:35 Clear 37 2.8 26 -3.3 65 65 SSW 8 13 30.18 1022 10 16.0934 N/A
1:55 am 01:55 Clear 37 2.5 26 -3.2 66 66 SW 9 15 30.18 1022 10 16.0934 N/A
2:15 am 02:15 Clear 33 0.8 25 -3.7 72 72 SW 7 11 30.21 1023 10 16.0934 N/A
2:35 am 02:35 Clear 33 0.4 26 -3.6 75 75 SSE 8 13 30.21 1023 10 16.0934 N/A
2:55 am 02:55 Clear 32 0 26 -3.4 78 78 S 3 6 30.21 1023 10 16.0934 N/A
3:15 am 03:15 Clear 32 0 26 -3.4 78 78 Calm 30.21 1023 10 16.0934 N/A
3:35 am 03:35 Clear 32 0 26 -3.5 78 78 Calm 30.18 1022 10 16.0934 N/A
3:55 am 03:55 Clear 28 -2.2 24 -4.2 86 86 SSW 5 7 30.18 1022 10 16.0934 N/A
4:15 am 04:15 Clear 25 -3.7 21 -6 84 84 WSW 3 6 30.21 1023 10 16.0934 N/A
4:35 am 04:35 Clear 29 -1.6 25 -3.8 85 85 Calm 30.21 1023 10 16.0934 N/A
4:55 am 04:55 Clear 24 -4.3 20 -6.4 85 85 Calm 30.21 1023 10 16.0934 N/A
5:15 am 05:15 Clear 26 -3.1 24 -4.4 91 91 SW 3 6 30.18 1022 10 16.0934 N/A
5:35 am 05:35 Clear 27 -2.6 24 -4.6 86 86 SW 6 9 30.18 1022 10 16.0934 N/A
5:55 am 05:55 Clear 29 -1.8 25 -3.7 87 87 WSW 5 7 30.18 1022 10 16.0934 N/A
6:15 am 06:15 Clear 28 -2.2 24 -4.3 86 86 WSW 5 7 30.18 1022 10 16.0934 N/A
6:35 am 06:35 Clear 26 -3.2 23 -5 88 88 SW 6 9 30.18 1022 10 16.0934 N/A
6:55 am 06:55 Clear 26 -3.1 23 -5 87 87 WSW 3 6 30.18 1022 10 16.0934 N/A
7:15 am 07:15 Clear 26 -3.1 23 -5.1 86 86 WNW 5 7 30.18 1022 10 16.0934 N/A
7:35 am 07:35 Clear 25 -4 22 -5.7 88 88 NNW 8 13 30.18 1022 10 16.0934 N/A
7:55 am 07:55 Sunny 25 -4 22 -5.6 89 89 NNW 7 11 30.18 1022 10 16.0934 N/A
8:15 am 08:15 Sunny 26 -3.5 23 -5 89 89 NW 7 11 30.18 1022 10 16.0934 N/A
8:35 am 08:35 Sunny 28 -2.3 25 -3.9 89 89 WNW 10 17 30.18 1022 10 16.0934 N/A
8:55 am 08:55 Sunny 36 2 28 -2.5 72 72 WNW 13 20 30.12 1020 10 16.0934 N/A
9:15 am 09:15 Sunny 37 2.7 28 -2.5 69 69 WNW 10 17 30.15 1021 10 16.0934 N/A
9:35 am 09:35 Sunny 39 4 28 -2.2 64 64 WNW 8 13 30.15 1021 10 16.0934 N/A
9:55 am 09:55 Sunny 41 4.9 29 -1.8 62 62 WNW 9 15 30.12 1020 10 16.0934 N/A
10:15 am 10:15 Sunny 44 6.8 30 -1.3 57 57 W 7 11 30.12 1020 10 16.0934 N/A
10:35 am 10:35 Sunny 47 8.2 29 -1.7 50 50 W 9 15 30.09 1019 10 16.0934 N/A
10:55 am 10:55 Sunny 49 9.4 29 -1.8 46 46 WNW 12 19 30.09 1019 10 16.0934 N/A
11:15 am 11:15 Sunny 50 10.1 29 -1.6 44 44 WNW 9 15 30.09 1019 10 16.0934 N/A
11:35 am 11:35 Sunny 51 10.6 30 -1 45 45 W 8 13 30.06 1018 10 16.0934 N/A
11:55 am 11:55 Sunny 51 10.8 30 -0.9 45 45 W 7 11 30.03 1017 10 16.0934 N/A
12:15 pm 12:15 Sunny 53 11.5 31 -0.7 43 43 WNW 7 11 30.03 1017 10 16.0934 N/A
12:35 pm 12:35 Sunny 54 12 30 -1 41 41 W 10 17 30.03 1017 10 16.0934 N/A
12:55 pm 12:55 Sunny 54 12.2 31 -0.8 41 41 W 7 11 30.03 1017 10 16.0934 N/A
1:15 pm 13:15 Sunny 55 12.6 30 -1.2 39 39 WNW 8 13 30.03 1017 10 16.0934 N/A
1:35 pm 13:35 Sunny 54 12.2 31 -0.7 41 41 W 7 11 30.03 1017 10 16.0934 N/A
1:55 pm 13:55 Sunny 56 13.1 29 -1.9 36 36 W 10 17 30.03 1017 10 16.0934 N/A
2:15 pm 14:15 Sunny 56 13.3 30 -1.2 37 37 W 5 7 30 1016 10 16.0934 N/A
2:35 pm 14:35 Sunny 56 13.4 28 -2.4 34 34 WNW 6 9 30 1016 10 16.0934 N/A
2:55 pm 14:55 Sunny 56 13.5 28 -2.5 33 33 WNW 3 6 29.97 1015 10 16.0934 N/A
3:15 pm 15:15 Sunny 56 13.6 28 -2.2 34 34 NW 5 7 29.97 1015 10 16.0934 N/A
3:35 pm 15:35 Sunny 56 13.5 27 -2.7 33 33 W 3 6 29.94 1014 10 16.0934 N/A
3:55 pm 15:55 Sunny 55 12.7 27 -2.9 34 34 Calm 29.94 1014 10 16.0934 N/A
4:15 pm 16:15 Sunny 53 11.5 31 -0.8 43 43 S 3 6 29.97 1015 10 16.0934 N/A
4:35 pm 16:35 Sunny 50 9.8 30 -0.9 48 48 SSW 7 11 29.97 1015 10 16.0934 N/A
4:55 pm 16:55 Sunny 48 9.1 30 -0.9 50 50 SSW 6 9 30 1016 10 16.0934 N/A
5:15 pm 17:15 Clear 46 8 30 -1.1 53 53 SSW 9 15 30 1016 10 16.0934 N/A
5:35 pm 17:35 Clear 47 8.3 30 -0.9 53 53 SW 9 15 30 1016 10 16.0934 N/A
5:55 pm 17:55 Clear 46 7.9 30 -1.2 53 53 SSW 9 15 30 1016 10 16.0934 N/A
6:15 pm 18:15 Clear 45 7.1 29 -1.5 55 55 SSW 9 15 29.97 1015 10 16.0934 N/A
6:35 pm 18:35 Clear 45 7 29 -1.5 55 55 SW 10 17 29.97 1015 10 16.0934 N/A
6:55 pm 18:55 Clear 44 6.9 29 -1.5 55 55 SSW 10 17 29.97 1015 10 16.0934 N/A
7:15 pm 19:15 Clear 45 7 29 -1.5 55 55 SSW 10 17 29.97 1015 10 16.0934 N/A
7:35 pm 19:35 Clear 46 7.6 29 -1.7 52 52 SSW 12 19 29.97 1015 10 16.0934 N/A
7:55 pm 19:55 Clear 45 7.4 28 -2 52 52 SSW 10 17 29.97 1015 10 16.0934 N/A
8:15 pm 20:15 Clear 45 7.1 29 -1.8 54 54 SW 8 13 29.94 1014 10 16.0934 N/A
8:35 pm 20:35 Clear 45 7 29 -1.7 54 54 SW 8 13 29.94 1014 10 16.0934 N/A
8:55 pm 20:55 Clear 45 7 29 -1.7 54 54 SW 12 19 29.94 1014 10 16.0934 N/A
9:15 pm 21:15 Clear 42 5.8 29 -1.8 58 58 SSW 8 13 29.94 1014 10 16.0934 N/A
9:35 pm 21:35 Clear 42 5.3 29 -1.7 61 61 SSW 8 13 29.97 1015 10 16.0934 N/A
9:55 pm 21:55 Clear 41 5 29 -1.9 61 61 SW 7 11 29.94 1014 10 16.0934 N/A
10:15 pm 22:15 Clear 40 4.6 28 -2.3 61 61 WSW 6 9 29.94 1014 10 16.0934 N/A
10:35 pm 22:35 Clear 42 5.5 27 -2.6 56 56 WSW 5 7 29.91 1013 10 16.0934 N/A
10:55 pm 22:55 Clear 44 6.7 28 -2.2 53 53 WSW 12 19 29.88 1012 10 16.0934 N/A
11:15 pm 23:15 Clear 47 8.2 27 -2.6 47 47 SW 16 26 29.88 1012 10 16.0934 N/A
11:35 pm 23:35 Clear 50 10.1 26 -3.2 39 39 SW 10 17 29.85 1011 10 16.0934 N/A
11:55 pm 23:55 Clear 48 8.7 27 -2.9 44 44 SW 12 19 29.83 1010 10 16.0934 N/A

Powered by AerisWeather